This is the latest recevied weather packets stored in our database for station/object N9ALD. If no packets are shown the sender has not sent any weather packets the latest 10 day(s).
| Time | Temp. | Humidity | Pressure | Rain* | Wind** | Luminosity | Snow |
|---|---|---|---|---|---|---|---|
| 1776897124 | 26.11° C | 40% | 1011.2 hPa | 0 mm | - | 186 W/m² | - |
| 1776896821 | 26.11° C | 38% | 1011.2 hPa | 0 mm | - | 200 W/m² | - |
| 1776896518 | 26.11° C | 39% | 1011.1 hPa | 0 mm | - | 213 W/m² | - |
| 1776896214 | 26.11° C | 39% | 1011 hPa | 0 mm | - | 226 W/m² | - |
| 1776895910 | 26.11° C | 38% | 1011.1 hPa | 0 mm | - | 243 W/m² | - |
| 1776895607 | 26.11° C | 40% | 1011.2 hPa | 0 mm | - | 255 W/m² | - |
| 1776895303 | 26.67° C | 38% | 1011.1 hPa | 0 mm | - | 271 W/m² | - |
| 1776894999 | 26.67° C | 39% | 1011.2 hPa | 0 mm | - | 285 W/m² | - |
| 1776894697 | 26.67° C | 39% | 1011 hPa | 0 mm | - | 299 W/m² | - |
| 1776894393 | 26.67° C | 40% | 1011.2 hPa | 0 mm | - | 312 W/m² | - |
| 1776894089 | 26.67° C | 38% | 1011.1 hPa | 0 mm | - | 327 W/m² | - |
| 1776893784 | 26.67° C | 37% | 1011.2 hPa | 0 mm | - | 343 W/m² | - |
| 1776893481 | 26.67° C | 38% | 1011.2 hPa | 0 mm | - | 357 W/m² | - |
| 1776893178 | 26.67° C | 40% | 1011.1 hPa | 0 mm | - | 371 W/m² | - |
| 1776892876 | 26.67° C | 38% | 1011.2 hPa | 0 mm | - | 384 W/m² | - |
| 1776892572 | 26.11° C | 39% | 1011.2 hPa | 0 mm | - | 399 W/m² | - |
| 1776892268 | 26.11° C | 38% | 1011.2 hPa | 0 mm | - | 412 W/m² | - |
| 1776891965 | 26.67° C | 40% | 1011.4 hPa | 0 mm | - | 426 W/m² | - |
| 1776891663 | 26.67° C | 39% | 1011.3 hPa | 0 mm | - | 439 W/m² | - |
| 1776891358 | 26.67° C | 39% | 1011.4 hPa | 0 mm | - | 452 W/m² | - |
| 1776891055 | 26.67° C | 38% | 1011.5 hPa | 0 mm | - | 464 W/m² | - |
| 1776890750 | 26.67° C | 37% | 1011.5 hPa | 0 mm | - | 476 W/m² | - |
| 1776890449 | 26.11° C | 41% | 1011.5 hPa | 0 mm | - | 486 W/m² | - |
| 1776890145 | 26.11° C | 39% | 1011.6 hPa | 0 mm | - | 499 W/m² | - |
| 1776889842 | 26.11° C | 41% | 1011.5 hPa | 0 mm | - | 509 W/m² | - |
* Rain latest hour (hover to see other rain measurements)
** Current wind speed in m/s (hover to see current wind gust speed)